TimeCDT,TemperatureF,Dew PointF,Humidity,Sea Level PressureIn,VisibilityMPH,Wind Direction,Wind SpeedMPH,Gust SpeedMPH,PrecipitationIn,Events,Conditions,WindDirDegrees,DateUTC
12:15 AM,74.3,66.4,76,30.08,10.0,ESE,8.1,-,N/A,,Clear,120,2013-08-24 05:15:00
12:35 AM,73.9,66.6,78,30.09,10.0,SE,6.9,-,N/A,,Clear,130,2013-08-24 05:35:00
12:55 AM,73.4,66.4,79,30.09,10.0,SE,6.9,-,N/A,,Clear,130,2013-08-24 05:55:00
1:15 AM,73.0,66.6,80,30.09,10.0,SE,5.8,-,N/A,,Clear,130,2013-08-24 06:15:00
1:35 AM,72.3,66.4,82,30.09,10.0,SE,4.6,-,N/A,,Clear,130,2013-08-24 06:35:00
1:55 AM,71.6,66.4,84,30.09,10.0,ESE,5.8,-,N/A,,Clear,120,2013-08-24 06:55:00
2:15 AM,71.8,66.6,84,30.09,10.0,SE,6.9,-,N/A,,Clear,130,2013-08-24 07:15:00
2:35 AM,71.6,66.4,84,30.09,10.0,SE,5.8,-,N/A,,Clear,130,2013-08-24 07:35:00
2:55 AM,71.1,66.2,85,30.10,10.0,SE,6.9,-,N/A,,Clear,130,2013-08-24 07:55:00
3:15 AM,70.9,66.2,85,30.10,10.0,SE,6.9,-,N/A,,Clear,130,2013-08-24 08:15:00
3:35 AM,71.1,66.2,85,30.10,10.0,SE,6.9,-,N/A,,Clear,140,2013-08-24 08:35:00
3:55 AM,70.7,66.2,86,30.10,10.0,SE,8.1,-,N/A,,Clear,140,2013-08-24 08:55:00
4:15 AM,70.0,66.0,87,30.11,10.0,SE,6.9,-,N/A,,Clear,140,2013-08-24 09:15:00
4:35 AM,69.8,65.8,87,30.12,10.0,SE,5.8,-,N/A,,Clear,140,2013-08-24 09:35:00
4:55 AM,68.9,65.5,89,30.12,10.0,SE,4.6,-,N/A,,Clear,140,2013-08-24 09:55:00
5:15 AM,68.9,65.7,89,30.12,10.0,SE,3.5,-,N/A,,Clear,130,2013-08-24 10:15:00
5:35 AM,69.4,65.8,88,30.12,10.0,SE,5.8,-,N/A,,Clear,130,2013-08-24 10:35:00
5:55 AM,69.4,65.7,88,30.12,10.0,SE,6.9,-,N/A,,Clear,140,2013-08-24 10:55:00
6:15 AM,69.4,65.7,88,30.13,10.0,SSE,5.8,-,N/A,,Clear,150,2013-08-24 11:15:00
6:35 AM,68.9,65.3,88,30.14,10.0,SSE,6.9,-,N/A,,Clear,150,2013-08-24 11:35:00
6:55 AM,68.9,65.5,89,30.15,7.0,SE,5.8,-,N/A,,Clear,140,2013-08-24 11:55:00
7:15 AM,69.8,65.8,87,30.15,10.0,SE,6.9,-,N/A,,Clear,140,2013-08-24 12:15:00
7:35 AM,70.7,66.2,86,30.15,10.0,SSE,5.8,-,N/A,,Clear,150,2013-08-24 12:35:00
7:55 AM,71.8,66.6,84,30.16,10.0,SSE,6.9,-,N/A,,Clear,150,2013-08-24 12:55:00
8:15 AM,72.3,66.9,83,30.16,10.0,SSE,6.9,-,N/A,,Clear,150,2013-08-24 13:15:00
8:35 AM,73.4,67.1,81,30.16,10.0,SSE,6.9,-,N/A,,Clear,150,2013-08-24 13:35:00
8:55 AM,75.0,67.8,78,30.17,10.0,SSE,6.9,-,N/A,,Clear,150,2013-08-24 13:55:00
9:15 AM,76.5,68.2,75,30.16,10.0,SSE,9.2,-,N/A,,Clear,150,2013-08-24 14:15:00
9:35 AM,77.9,68.5,73,30.16,10.0,SSE,6.9,-,N/A,,Clear,150,2013-08-24 14:35:00
9:55 AM,79.9,69.1,69,30.16,10.0,SSE,6.9,-,N/A,,Clear,150,2013-08-24 14:55:00
10:15 AM,81.1,69.1,67,30.16,10.0,SSE,9.2,-,N/A,,Clear,160,2013-08-24 15:15:00
10:35 AM,81.9,68.9,65,30.16,10.0,SSE,10.4,-,N/A,,Clear,160,2013-08-24 15:35:00
10:55 AM,83.5,69.3,62,30.16,10.0,South,8.1,-,N/A,,Clear,170,2013-08-24 15:55:00
11:15 AM,84.4,69.4,61,30.16,10.0,South,9.2,-,N/A,,Clear,170,2013-08-24 16:15:00
11:35 AM,84.9,68.4,57,30.16,10.0,South,10.4,16.1,N/A,,Clear,180,2013-08-24 16:35:00
11:55 AM,86.0,68.7,56,30.16,10.0,South,8.1,-,N/A,,Scattered Clouds,180,2013-08-24 16:55:00
12:15 PM,86.9,68.0,53,30.16,10.0,South,8.1,17.3,N/A,,Scattered Clouds,180,2013-08-24 17:15:00
12:35 PM,87.3,68.4,53,30.15,10.0,South,8.1,16.1,N/A,,Scattered Clouds,170,2013-08-24 17:35:00
12:55 PM,87.6,68.2,52,30.15,10.0,South,11.5,-,N/A,,Mostly Cloudy,180,2013-08-24 17:55:00
1:15 PM,88.3,67.1,49,30.14,10.0,South,12.7,18.4,N/A,,Scattered Clouds,180,2013-08-24 18:15:00
1:35 PM,88.9,65.3,45,30.14,10.0,SSE,9.2,17.3,N/A,,Clear,160,2013-08-24 18:35:00
1:55 PM,88.7,66.2,47,30.13,10.0,SSE,9.2,16.1,N/A,,Scattered Clouds,160,2013-08-24 18:55:00
2:15 PM,89.1,66.0,46,30.13,10.0,South,8.1,17.3,N/A,,Scattered Clouds,170,2013-08-24 19:15:00
2:35 PM,90.1,65.8,44,30.12,10.0,South,10.4,-,N/A,,Scattered Clouds,170,2013-08-24 19:35:00
2:55 PM,89.1,64.9,45,30.11,10.0,South,11.5,-,N/A,,Scattered Clouds,170,2013-08-24 19:55:00
3:15 PM,89.6,64.6,43,30.11,10.0,South,11.5,-,N/A,,Scattered Clouds,170,2013-08-24 20:15:00
3:35 PM,90.5,63.3,40,30.09,10.0,SSE,12.7,17.3,N/A,,Scattered Clouds,160,2013-08-24 20:35:00
3:55 PM,90.5,63.0,40,30.09,10.0,South,11.5,19.6,N/A,,Scattered Clouds,170,2013-08-24 20:55:00
4:15 PM,90.3,63.1,40,30.09,10.0,SSE,11.5,17.3,N/A,,Scattered Clouds,160,2013-08-24 21:15:00
4:35 PM,91.0,62.6,39,30.09,10.0,SSE,12.7,18.4,N/A,,Scattered Clouds,160,2013-08-24 21:35:00
4:55 PM,89.2,63.0,41,30.08,10.0,SSE,12.7,19.6,N/A,,Scattered Clouds,160,2013-08-24 21:55:00
5:15 PM,88.7,63.7,43,30.08,10.0,SSE,11.5,18.4,N/A,,Clear,160,2013-08-24 22:15:00
5:35 PM,87.8,64.4,46,30.09,10.0,SSE,9.2,16.1,N/A,,Clear,160,2013-08-24 22:35:00
5:55 PM,87.3,65.1,48,30.08,10.0,SSE,6.9,-,N/A,,Clear,160,2013-08-24 22:55:00
6:15 PM,86.5,65.8,50,30.08,10.0,SSE,6.9,-,N/A,,Clear,160,2013-08-24 23:15:00
6:35 PM,85.6,66.0,52,30.08,10.0,SSE,8.1,-,N/A,,Clear,160,2013-08-24 23:35:00
6:55 PM,85.3,66.2,53,30.08,10.0,SSE,8.1,-,N/A,,Clear,160,2013-08-24 23:55:00
7:15 PM,85.1,66.2,53,30.09,10.0,SSE,4.6,-,N/A,,Clear,160,2013-08-25 00:15:00
7:35 PM,84.0,66.2,55,30.09,10.0,SSE,5.8,-,N/A,,Clear,160,2013-08-25 00:35:00
7:55 PM,82.4,66.2,58,30.09,10.0,SSE,5.8,-,N/A,,Clear,150,2013-08-25 00:55:00
8:15 PM,81.7,65.5,58,30.09,10.0,SSE,6.9,-,N/A,,Clear,150,2013-08-25 01:15:00
8:35 PM,80.6,65.5,60,30.10,10.0,SSE,5.8,-,N/A,,Clear,150,2013-08-25 01:35:00
8:55 PM,80.2,65.3,60,30.11,10.0,SSE,5.8,-,N/A,,Clear,160,2013-08-25 01:55:00
9:15 PM,79.9,64.9,60,30.12,10.0,SSE,5.8,-,N/A,,Clear,150,2013-08-25 02:15:00
9:35 PM,78.8,65.3,63,30.13,10.0,SSE,5.8,-,N/A,,Clear,160,2013-08-25 02:35:00
9:55 PM,78.3,65.3,64,30.13,10.0,SSE,5.8,-,N/A,,Clear,160,2013-08-25 02:55:00
10:15 PM,77.7,65.3,65,30.13,10.0,SSE,6.9,-,N/A,,Clear,160,2013-08-25 03:15:00
10:35 PM,77.0,65.5,67,30.13,10.0,SSE,5.8,-,N/A,,Clear,160,2013-08-25 03:35:00
10:55 PM,76.1,65.3,69,30.13,10.0,SSE,5.8,-,N/A,,Clear,160,2013-08-25 03:55:00
11:15 PM,76.1,64.9,68,30.13,10.0,SSE,5.8,-,N/A,,Clear,160,2013-08-25 04:15:00
11:35 PM,76.1,64.6,67,30.13,10.0,South,8.1,-,N/A,,Clear,170,2013-08-25 04:35:00
11:55 PM,76.1,63.9,66,30.13,10.0,South,6.9,-,N/A,,Clear,180,2013-08-25 04:55:00